#timestamp,LO_Frequency,Hit,StdDev 
1682665215.1,286047000.1,N
1682665216.0,286047000.1,N
1682665235.8,286047002.5,N
1682665255.7,286047002.3,N
1682665275.5,286047001.8,N
1682665295.3,286047001.8,N
1682665315.2,286047001.5,N
1682665335.0,286047001.6,N
1682665335.9,286047001.6,N
1682665355.8,286047001.8,N
1682665375.6,286047004.3,Y
1682665395.4,286046999.9,P
1682665415.3,286047000.0,N
1682665435.1,286047000.3,N
1682665455.9,286047001.0,N
1682665475.7,286046999.5,N
1682665495.5,286046998.1,N
1682665515.4,286046996.6,Y
1682665535.2,286046999.4,P
1682665555.0,286047001.0,N
1682665556.0,286047001.0,N
1682665575.8,286046998.2,N
1682665595.6,286046999.6,N
1682665615.5,286046999.3,N
1682665635.3,286047001.2,N
1682665655.1,286047001.1,N
1682665675.9,286047000.0,N
1682665695.7,286047000.1,N
1682665715.6,286047002.4,N
1682665735.4,286047000.2,N
1682665755.2,286047002.4,N
1682665775.1,286047002.6,N
1682665776.0,286047002.6,N
1682665795.8,286047000.0,N
1682665815.7,286047000.0,N
1682665835.5,286047002.3,N
1682665855.3,286047002.7,N
1682665875.2,286047002.8,N
1682665895.0,286047002.7,N
1682665895.9,286047002.7,N
1682665915.7,286047002.8,N
1682665935.6,286047002.0,N
1682665955.4,286047002.1,N
1682665975.3,286047002.4,N
1682665995.1,286047000.1,N
1682666015.8,286047002.6,N
1682666035.7,286047002.0,N
1682666055.5,286047002.8,N
1682666075.4,286047002.7,N
1682666095.2,286047002.7,N
1682666115.0,286047002.3,N
1682666116.0,286047002.3,N
1682666135.8,286047002.3,N
1682666155.6,286047000.2,N
1682666175.5,286047002.5,N
1682666195.3,286047004.4,Y
1682666215.1,286047000.8,P
1682666235.9,286047000.9,N
1682666255.7,286047001.1,N
1682666275.6,286047001.1,N
1682666295.4,286047001.1,N
1682666315.3,286046998.4,Y
1682666335.1,286046997.2,P
1682666336.0,286046997.2,N
1682666355.8,286046997.6,N
1682666375.7,286046997.7,N
1682666395.5,286046996.9,N
1682666415.4,286046996.9,N
1682666435.2,286046996.6,N
1682666455.0,286046999.6,N
1682666455.9,286046999.6,N
1682666475.8,286046999.5,N
1682666495.6,286046999.4,N
1682666515.5,286046999.2,N
1682666535.3,286046997.4,N
1682666555.1,286046995.8,Y
1682666575.9,286046999.1,P
1682666595.7,286046998.2,P
1682666615.6,286047000.9,N
1682666635.4,286046998.8,N
1682666655.2,286046998.1,N
1682666675.1,286047001.1,N
1682666676.0,286047001.1,N
1682666695.8,286046998.8,N
1682666715.6,286046999.3,N
1682666735.5,286046998.3,N
1682666755.3,286046998.1,N
1682666775.2,286046999.8,N
1682666795.9,286047000.6,N
1682666815.7,286047000.1,N
1682666835.6,286047000.2,N
1682666855.4,286047000.4,N
1682666875.2,286046999.7,N
1682666895.1,286047000.2,N
1682666896.0,286047000.2,N
1682666915.8,286047000.2,N
1682666935.7,286047002.6,N
1682666955.5,286047002.5,N
1682666975.4,286047002.2,N
1682666995.2,286047002.6,N
1682667015.0,286047002.7,N
1682667015.9,286047002.7,N
1682667035.8,286046999.7,N
1682667055.6,286047001.6,N
1682667075.4,286047001.3,N
1682667095.3,286047004.0,N
1682667115.1,286047001.5,N
1682667135.9,286047002.3,N
1682667155.7,286046999.9,N
1682667175.5,286047002.7,N
1682667195.4,286047002.0,N
1682667215.2,286047002.2,N
1682667235.0,286047002.6,N
1682667235.9,286047002.6,N
1682667255.8,286047001.6,N
1682667275.6,286047002.2,N
1682667295.5,286047001.4,N
1682667315.3,286047000.7,N
1682667335.1,286047002.8,N
1682667355.9,286047002.4,N
1682667375.7,286047002.7,N
1682667395.5,286047002.6,N
1682667415.4,286047000.2,N
1682667435.2,286046999.8,N
1682667485.1,286047001.7,E
1682667495.0,286047001.5,N
1682667495.9,286047001.5,P
1682667515.8,286047002.4,P
1682667535.6,286047000.1,N
1682667555.4,286047002.8,Y
1682667575.3,286046998.3,P
1682667595.1,286046999.1,N
1682667615.8,286046999.4,N
1682667635.7,286046999.6,N
1682667655.5,286046997.0,N
1682667675.4,286046997.3,N
1682667695.2,286046996.7,N
1682667715.0,286046999.5,N
1682667715.9,286046999.5,N
1682667735.8,286046999.1,N
1682667755.6,286046998.8,N
1682667775.5,286046998.5,N
1682667795.3,286047000.9,N
1682667815.1,286046998.1,N
1682667835.9,286046998.9,N
1682667855.7,286046998.4,N
1682667875.5,286047001.2,N
1682667895.4,286046998.2,N
1682667915.2,286046998.3,N
1682667935.1,286047000.9,N
1682667936.0,286047000.9,N
1682667955.8,286047000.0,N
1682667975.6,286047000.4,N
1682667995.5,286046998.2,N
1682668015.3,286046998.9,N
1682668035.2,286046998.6,N
1682668055.9,286046996.5,N
1682668075.7,286046996.7,N
1682668095.6,286046995.4,Y
1682668115.4,286046999.1,P
1682668135.3,286046996.5,P
1682668155.1,286046996.9,N
1682668156.0,286046996.9,N
1682668175.8,286046999.2,N
1682668195.7,286046998.8,N
1682668215.5,286046998.9,N
1682668235.3,286046999.0,N
1682668255.2,286047001.2,N
1682668275.0,286046998.7,N
1682668275.9,286046998.7,N
1682668295.8,286047000.7,N
1682668315.6,286047000.4,N
1682668335.4,286047001.0,N
1682668355.3,286046998.1,N
1682668375.1,286046998.2,N
1682668395.8,286046998.4,N
1682668415.7,286046999.4,N
1682668435.5,286047001.0,N
1682668455.4,286047001.2,N
1682668475.2,286046998.1,N
1682668495.0,286047001.1,N
1682668495.9,286047001.1,N
1682668515.8,286047000.3,N
1682668535.6,286047000.7,N
1682668555.4,286047002.6,N
1682668575.3,286047000.7,N
1682668595.1,286047000.4,N
1682668615.9,286047000.2,N
1682668635.7,286047000.3,N
1682668655.5,286047000.5,N
1682668675.4,286047000.4,N
1682668695.2,286047000.0,N
1682668715.0,286047000.3,N
1682668715.9,286047000.3,N
1682668735.8,286047000.5,N
1682668755.6,286047002.7,N
1682668775.5,286047002.4,N
1682668795.3,286047001.6,N
